Weather History for Owensboro, KY

Change the Weather History Date:

Thursday, March 7, 2013

  Actual Average Record
Temperature  
Mean Temperature 36 °F -  
Max Temperature 39 °F 54 °F 80 °F (1974)
Min Temperature 32 °F 32 °F 7 °F (1967)
Degree Days  
Heating Degree Days 30    
Moisture  
Dew Point 28 °F    
Average Humidity 73    
Maximum Humidity 86    
Minimum Humidity 63    
Precipitation  
Precipitation 0.00 in - - ()
Sea Level Pressure  
Sea Level Pressure 30.40 in    
Wind  
Wind Speed 5 mph (NNE)    
Max Wind Speed 7 mph    
Max Gust Speed -    
Visibility 10 miles    
Events      
Averages and records for this station are not official NWS values.
T = Trace of Precipitation, MM = Missing Value Source: NWS Daily Summary

Daily Weather History Graph

Daily Weather History Graph

Search for Another Location

Airport:

Trip Planner

Search our weather history database for the weather conditions in past years. The results will help you decide how hot, cold, wet, or windy it might be!

Date:

Astronomy

Mar. 07, 2013 Rise Set
Actual Time 6:11 AM CST 5:48 PM CST
Civil Twilight 5:45 AM CST 6:14 PM CST
Nautical Twilight 5:14 AM CST 6:45 PM CST
Astronomical Twilight 4:44 AM CST 7:15 PM CST
Moon 3:06 AM CST (3/7) 1:39 PM CST (3/7)
Length of Visible Light 12h 29m
Length of Day
11h 37m
Waning Crescent, 20% of the Moon is Illuminated
Mar 7
Waning Crescent
Mar 11
New
Mar 19
First Quarter
Mar 27
Full
Apr 2
Last Quarter

Hourly Weather History & Observations

Time (CST) Temp. Windchill Dew Point Humidity Pressure Visibility Wind Dir Wind Speed Gust Speed Precip Events Conditions
12:56 AM 32.9 °F 28.5 °F 26.1 °F 76% 30.35 in 10.0 mi Variable 4.6 mph - N/A   Overcast
1:56 AM 32.9 °F 28.5 °F 26.1 °F 76% 30.36 in 10.0 mi North 4.6 mph - N/A   Overcast
2:56 AM 32.9 °F 29.8 °F 26.1 °F 76% 30.35 in 10.0 mi North 3.5 mph - N/A   Overcast
3:56 AM 32.0 °F 26.4 °F 26.1 °F 79% 30.37 in 10.0 mi NNW 5.8 mph - N/A   Overcast
4:56 AM 32.9 °F 27.5 °F 27.1 °F 79% 30.38 in 10.0 mi NW 5.8 mph - N/A   Overcast
5:56 AM 32.9 °F 27.5 °F 28.0 °F 82% 30.40 in 10.0 mi NW 5.8 mph - N/A   Overcast
6:56 AM 32.9 °F - 28.0 °F 82% 30.42 in 8.0 mi Calm Calm - N/A   Overcast
7:56 AM 32.9 °F 26.7 °F 29.1 °F 86% 30.43 in 10.0 mi North 6.9 mph - 0.00 in   Overcast
8:56 AM 34.0 °F 28.8 °F 29.1 °F 82% 30.42 in 8.0 mi North 5.8 mph - 0.00 in   Overcast
9:56 AM 36.0 °F 32.1 °F 29.1 °F 76% 30.43 in 8.0 mi North 4.6 mph - N/A   Overcast
10:56 AM 36.9 °F 32.2 °F 28.0 °F 70% 30.42 in 8.0 mi Variable 5.8 mph - N/A   Overcast
11:56 AM 36.9 °F 33.1 °F 27.1 °F 68% 30.42 in 10.0 mi Variable 4.6 mph - N/A   Overcast
12:56 PM 38.8 °F 36.5 °F 28.0 °F 65% 30.41 in 10.0 mi NNE 3.5 mph - N/A   Overcast
1:56 PM 38.8 °F 35.4 °F 28.0 °F 65% 30.40 in 10.0 mi Variable 4.6 mph - N/A   Overcast
2:56 PM 39.9 °F 37.8 °F 28.0 °F 63% 30.38 in 10.0 mi Variable 3.5 mph - N/A   Overcast
3:56 PM 39.9 °F - 28.0 °F 63% 30.38 in 10.0 mi Calm Calm - N/A   Overcast
4:56 PM 38.8 °F 34.6 °F 28.0 °F 65% 30.39 in 10.0 mi ENE 5.8 mph - N/A   Overcast
5:56 PM 38.8 °F 35.4 °F 28.0 °F 65% 30.40 in 10.0 mi ENE 4.6 mph - N/A   Overcast
6:56 PM 38.8 °F 33.8 °F 29.1 °F 68% 30.41 in 10.0 mi East 6.9 mph - N/A   Overcast
7:56 PM 37.9 °F 33.5 °F 29.1 °F 71% 30.41 in 10.0 mi East 5.8 mph - N/A   Overcast
8:56 PM 37.9 °F 32.7 °F 28.0 °F 68% 30.40 in 10.0 mi East 6.9 mph - N/A   Overcast
9:56 PM 36.0 °F 30.3 °F 29.1 °F 76% 30.40 in 10.0 mi ESE 6.9 mph - N/A   Mostly Cloudy
10:56 PM 37.9 °F - 31.1 °F 76% 30.40 in 10.0 mi Calm Calm - N/A   Mostly Cloudy
11:56 PM 34.9 °F 29.9 °F 28.0 °F 76% 30.40 in 10.0 mi East 5.8 mph - N/A   Overcast